Saranac Lake, NY

5:59 PM EDT on April 27, 2017 (GMT -0400)
Adirondack Regional

Weather History for KSLK - January, 2013

Change the Weather History Date:

Tuesday, January 1, 2013

  Actual Average Record
Temperature  
Mean Temperature 13 °F 14 °F  
Max Temperature 27 °F 25 °F 52 °F (1966)
Min Temperature -1 °F 4 °F -24 °F (1968)
Degree Days  
Heating Degree Days 52 51  
Month to date heating degree days 52 51  
Since 1 July heating degree days 3426 3750  
Cooling Degree Days 0 0  
Month to date cooling degree days 0  
Year to date cooling degree days 0  
Moisture  
Dew Point 9 °F    
Average Humidity 79    
Maximum Humidity 92    
Minimum Humidity 66    
Precipitation  
Precipitation 0.01 in 0.08 in 0.65 in (1949)
Month to date precipitation 0.01 0.08  
Year to date precipitation 0.01 0.08  
Sea Level Pressure  
Sea Level Pressure 29.78 in    
Wind  
Wind Speed 7 mph (West)    
Max Wind Speed 18 mph    
Max Gust Speed 29 mph    
Visibility 4 miles    
Events Fog , Snow    
T = Trace of Precipitation, MM = Missing Value Source: NWS Daily Summary

Daily Weather History Graph

Daily Weather History Graph

Search for Another Location

Airport or City:

Trip Planner

Search our weather history database for the weather conditions in past years. The results will help you decide how hot, cold, wet, or windy it might be!

Date:

Astronomy

Jan. 01, 2013 Rise Set
Actual Time 7:32 AM EST 4:28 PM EST
Civil Twilight 6:59 AM EST 5:01 PM EST
Nautical Twilight 6:23 AM EST 5:38 PM EST
Astronomical Twilight 5:47 AM EST 6:13 PM EST
Moon 9:07 PM EST (1/1) 9:33 AM EST (1/1)
Length of Visible Light 10h 01m
Length of Day
8h 55m
Waning Gibbous, 83% of the Moon is Illuminated
Jan 1
Waning Gibbous
Jan 4
Last Quarter
Jan 11
New
Jan 18
First Quarter
Jan 26
Full

Hourly Weather History & Observations

Time (EST) Temp. Windchill Dew Point Humidity Pressure Visibility Wind Dir Wind Speed Gust Speed Precip Events Conditions
12:30 AM 26.6 °F 16.8 °F 24.8 °F 93% 29.61 in 2.0 mi WSW 10.4 mph 19.6 mph 0.00 in Snow Light Snow
12:37 AM 26.6 °F 17.5 °F 24.8 °F 93% 29.61 in 1.5 mi WSW 9.2 mph 21.9 mph 0.00 in Snow Light Snow
12:51 AM 27.0 °F 17.3 °F 24.1 °F 89% 29.68 in 1.8 mi WSW 10.4 mph 24.2 mph 0.00 in Snow Light Snow
12:58 AM 26.6 °F 15.7 °F 24.8 °F 93% 29.61 in 2.0 mi WSW 12.7 mph 24.2 mph 0.00 in Snow Light Snow
1:21 AM 26.6 °F 15.7 °F 23.0 °F 86% 29.61 in 3.0 mi WSW 12.7 mph 20.7 mph 0.00 in Snow Light Snow
1:34 AM 26.6 °F 15.2 °F 23.0 °F 86% 29.61 in 1.8 mi WSW 13.8 mph 28.8 mph 0.00 in Snow Light Snow
1:37 AM 26.6 °F 13.4 °F 23.0 °F 86% 29.62 in 0.8 mi West 18.4 mph 28.8 mph 0.00 in Snow Light Snow
1:41 AM 26.6 °F 17.5 °F 23.0 °F 86% 29.63 in 0.5 mi West 9.2 mph 28.8 mph 0.01 in Fog , Snow Snow
1:51 AM 25.0 °F 18.1 °F 23.0 °F 92% 29.70 in 0.5 mi West 5.8 mph 21.9 mph 0.01 in Fog , Snow Snow
1:58 AM 24.8 °F 12.9 °F 21.2 °F 86% 29.64 in 2.0 mi WNW 13.8 mph 26.5 mph 0.00 in Snow Light Snow
2:08 AM 24.8 °F 14.0 °F 19.4 °F 80% 29.65 in 5.0 mi WNW 11.5 mph 26.5 mph 0.00 in Snow Light Snow
2:17 AM 24.8 °F 13.4 °F 19.4 °F 80% 29.65 in 6.0 mi West 12.7 mph 24.2 mph 0.00 in   Haze
2:26 AM 24.8 °F 15.3 °F 19.4 °F 80% 29.65 in 7.0 mi WNW 9.2 mph 18.4 mph 0.00 in   Overcast
2:51 AM 23.0 °F 13.9 °F 18.0 °F 81% 29.72 in 5.0 mi WNW 8.1 mph 19.6 mph 0.00 in   Haze
3:51 AM 21.0 °F 12.4 °F 16.0 °F 81% 29.74 in 3.0 mi WNW 6.9 mph 17.3 mph 0.00 in Snow Light Snow
3:58 AM 19.4 °F 7.9 °F 15.8 °F 86% 29.68 in 2.5 mi NW 10.4 mph 17.3 mph 0.00 in Snow Light Snow
4:24 AM 19.4 °F 6.6 °F 14.0 °F 80% 29.70 in 1.8 mi NW 12.7 mph 20.7 mph 0.00 in Snow Light Snow
4:51 AM 17.1 °F 5.8 °F 12.0 °F 81% 29.78 in 1.5 mi WNW 9.2 mph 17.3 mph 0.00 in Snow Light Snow
5:11 AM 15.8 °F 6.1 °F 10.4 °F 79% 29.72 in 1.0 mi NNW 6.9 mph - 0.00 in Snow Light Snow
5:19 AM 14.0 °F 5.1 °F 10.4 °F 86% 29.72 in 1.2 mi Variable 5.8 mph - 0.00 in Snow Light Snow
5:44 AM 12.2 °F 0.7 °F 8.6 °F 85% 29.73 in 2.5 mi WNW 8.1 mph 18.4 mph 0.00 in Snow Light Snow
5:51 AM 12.9 °F 0.7 °F 8.1 °F 81% 29.82 in 2.5 mi WNW 9.2 mph 16.1 mph 0.00 in Snow Light Snow
6:03 AM 12.2 °F -0.2 °F 8.6 °F 85% 29.74 in 3.0 mi WNW 9.2 mph - 0.00 in Snow Light Snow
6:51 AM 12.0 °F -0.4 °F 7.0 °F 80% 29.84 in 3.0 mi NW 9.2 mph - 0.00 in Snow Light Snow
7:19 AM 10.4 °F 0.8 °F 6.8 °F 85% 29.76 in 3.0 mi WNW 5.8 mph - 0.00 in Snow Light Snow
7:47 AM 10.4 °F 2.2 °F 6.8 °F 85% 29.77 in 2.0 mi Variable 4.6 mph - 0.00 in Snow Light Snow
7:51 AM 10.0 °F 0.4 °F 6.1 °F 84% 29.86 in 2.0 mi West 5.8 mph - 0.00 in Snow Light Snow
8:03 AM 10.4 °F 2.2 °F 5.0 °F 79% 29.78 in 3.0 mi Variable 4.6 mph - 0.00 in   Haze
8:51 AM 9.0 °F -2.2 °F 3.0 °F 77% 29.86 in 5.0 mi WNW 6.9 mph - 0.00 in   Haze
9:27 AM 8.6 °F 0.1 °F 3.2 °F 79% 29.79 in 2.0 mi Variable 4.6 mph - 0.00 in Snow Light Snow
9:51 AM 9.0 °F -0.9 °F 3.9 °F 80% 29.87 in 1.5 mi West 5.8 mph - 0.00 in Snow Light Snow
10:32 AM 8.6 °F 0.1 °F 3.2 °F 79% 29.79 in 1.5 mi Variable 4.6 mph - 0.00 in   Haze
10:51 AM 8.1 °F 1.4 °F 1.9 °F 76% 29.88 in 2.5 mi Variable 3.5 mph - 0.00 in   Overcast
11:02 AM 8.6 °F -2.6 °F 1.4 °F 73% 29.79 in 1.8 mi Variable 6.9 mph - N/A   Haze
11:30 AM 8.6 °F -2.6 °F 1.4 °F 73% 29.79 in 3.0 mi Variable 6.9 mph - N/A   Haze
11:51 AM 9.0 °F -0.9 °F 3.0 °F 77% 29.86 in 2.0 mi West 5.8 mph - N/A   Haze
11:59 AM 8.6 °F -3.7 °F 3.2 °F 79% 29.78 in 1.5 mi WNW 8.1 mph - 0.00 in Snow Light Snow
12:14 PM 8.6 °F 0.1 °F 3.2 °F 79% 29.78 in 3.0 mi Variable 4.6 mph - 0.00 in   Haze
12:51 PM 9.0 °F -3.2 °F 3.0 °F 77% 29.87 in 5.0 mi NW 8.1 mph - 0.00 in   Haze
1:51 PM 10.0 °F -3.7 °F 1.9 °F 70% 29.87 in 8.0 mi West 10.4 mph - N/A   Overcast
2:51 PM 8.1 °F -2.0 °F 1.0 °F 73% 29.87 in 10.0 mi WNW 5.8 mph - N/A   Mostly Cloudy
3:00 PM 8.6 °F 0.1 °F 1.4 °F 73% 29.78 in 9.0 mi WNW 4.6 mph - N/A   Partly Cloudy
3:34 PM 8.6 °F -3.7 °F 1.4 °F 73% 29.77 in 10.0 mi WSW 8.1 mph - N/A   Mostly Cloudy
3:51 PM 7.0 °F -5.7 °F -0.0 °F 73% 29.87 in 10.0 mi WSW 8.1 mph - N/A   Mostly Cloudy
4:27 PM 6.8 °F -3.5 °F -0.4 °F 72% 29.78 in 10.0 mi WSW 5.8 mph - N/A   Scattered Clouds
4:51 PM 5.0 °F -5.6 °F -0.9 °F 76% 29.90 in 10.0 mi West 5.8 mph - N/A   Clear
5:51 PM 3.9 °F -5.3 °F -0.9 °F 80% 29.92 in 10.0 mi WSW 4.6 mph - N/A   Clear
6:51 PM 3.0 °F -6.4 °F -0.9 °F 84% 29.94 in 10.0 mi WSW 4.6 mph - N/A   Clear
7:51 PM 1.0 °F -12.9 °F -2.0 °F 87% 29.95 in 10.0 mi WSW 8.1 mph - N/A   Clear
8:51 PM 1.0 °F -11.7 °F -2.0 °F 87% 29.94 in 10.0 mi WSW 6.9 mph - N/A   Clear
9:51 PM 1.0 °F -8.7 °F -2.0 °F 87% 29.93 in 10.0 mi WSW 4.6 mph - N/A   Unknown
10:51 PM 1.0 °F -12.9 °F -2.0 °F 87% 29.95 in 10.0 mi SW 8.1 mph - N/A   Clear
11:51 PM 1.0 °F -14.0 °F -2.0 °F 87% 29.94 in 10.0 mi SW 9.2 mph - N/A   Mostly Cloudy